ONEWEB-0119 (47265 NORAD) Tracking and Keplerian Element Data

This shows tracking and keplerian element data for the satellite.

Feedback or suggestion? Click here.




ElementValue
Catalog47265
NameONEWEB-0119
Epoch Orbit177
Epoch Day15.91667824
Epoch Year2021
RAAN29.6212
Inclination87.4223
Eccentricity0.0012326
Argument of Perigee158.2894
Mean Anonmoly298.0309
Mean Motion15.19750045
Decay Rate-0.01356535
L11 47265U 20100H 21015.91667824 -.01356535 00000-0 -69713-1 0 9996
L22 47265 87.4223 29.6212 0012326 158.2894 298.0309 15.19750045 1778

Live tracking and technical data element details for ONEWEB-0119 (NORAD 47265). ONEWEB-0119 can be tracked NOW for your location showing map with azimuth and elevation plus other details from your city location.

Track the satellite on the map from your city or location and see movement details for azimuth, elevation, latitude, longitude, range, height, and movement on the map or in text.







IsCatalogInMostPopularTable: catalog: 47265, numindb: 9
Update: records affected: 1



GetName: 47265 ONEWEB-0119

Hit Count: updated at: Sun, 17 Jan 2021 08:51:57 GMT